[[{"header":{"parameterUnit":"m.s-1","parameterCategory":1,"la1":30.2991,"la2":30.254,"lo1":-89.0895,"lo2":-89.0444,"dx":0.0017,"dy":0.0017,"nx":28,"ny":28,"refTime":"2022-11-16T09:00:00:Z","depth":0,"parameterNumber":2,"parameterNumberName":"U-component_of_WINDS"},"data":[0,0,0,0,0,0,0,0,0,0,0,0,0,0,0,0,0,0,0,0,0,0,0,0,0,0,0,0,0,0,0,0,0,0,0,0,0,0,0,0,0,0,0,0,0,0,0,0,0,0,0,0,0,0,0,0,0,0,-0.1707,-0.1708,0,-0.1771,-0.1772,-0.1772,-0.1757,-0.1756,-0.1755,-0.1754,-0.1821,-0.1824,-0.1827,0,0,0,0,0,0,0,0,0,0,0,0,0,-0.1574,-0.1576,-0.1707,-0.1708,-0.1709,-0.1771,-0.1772,-0.1773,-0.1757,-0.1756,-0.1754,-0.1753,-0.182,-0.1824,-0.1827,0,0,0,0,0,0,0,0,0,0,0,0,0,-0.1634,-0.1577,-0.1707,-0.1709,-0.1709,-0.1771,-0.1772,-0.1773,-0.1758,-0.1756,-0.1754,-0.1752,-0.1819,-0.1823,-0.1828,-0.1892,0,0,-0.1841,-0.1843,0,0,0,0,0,0,0,0,-0.1631,-0.1639,-0.1708,-0.1709,-0.171,-0.1754,-0.1749,-0.1813,-0.1758,-0.1739,-0.1754,-0.1751,-0.1801,-0.1806,-0.1822,-0.1895,-0.1898,-0.1842,-0.1844,-0.1846,-0.1847,0,0,0,0,0,0,0,-0.1626,-0.1636,-0.1732,-0.1709,-0.171,-0.1707,-0.1713,-0.1761,-0.178,-0.1741,-0.174,-0.1748,-0.1801,-0.1818,-0.1824,-0.1899,-0.1841,-0.1845,-0.1848,-0.185,-0.2028,-0.203,0,0,0,0,0,0,-0.1621,-0.1633,-0.173,-0.1734,-0.1665,-0.171,-0.1718,-0.1742,-0.1779,-0.1783,-0.1749,-0.1747,-0.1812,-0.1819,-0.1826,-0.1905,-0.1846,-0.185,-0.1853,-0.2026,-0.2028,-0.203,0,0,0,0,0,0,-0.1618,-0.163,-0.1728,-0.1683,-0.1695,-0.1715,-0.1742,-0.1744,-0.1761,-0.1785,-0.1789,-0.1764,-0.181,-0.182,-0.1876,-0.1907,-0.1852,-0.1856,-0.2023,-0.2026,-0.2029,-0.2062,0,0,0,0,0,0,-0.1614,-0.1629,-0.1654,-0.1684,-0.1698,-0.1776,-0.1744,-0.1747,-0.1769,-0.1766,-0.18,-0.1803,-0.181,-0.1869,-0.188,-0.1912,-0.186,-0.2021,-0.2025,-0.2028,-0.2058,-0.2065,-0.2072,0,0,0,0,0,-0.161,-0.1661,-0.1655,-0.1667,-0.1729,-0.1778,-0.1786,-0.1791,-0.1771,-0.1797,-0.1811,-0.1802,-0.1901,-0.1875,-0.1887,-0.1921,-0.2019,-0.2023,-0.2028,-0.2055,-0.2064,-0.2072,0,0,0,0,0,0,-0.1635,-0.1665,-0.1659,-0.1721,-0.1747,-0.1775,-0.1807,-0.1801,-0.1834,-0.183,-0.1836,-0.1844,-0.19,-0.1916,-0.1886,-0.1985,-0.1957,-0.1964,-0.1973,-0.1982,-0.1989,-0.1985,-0.1863,0,0,0,0,0,-0.1647,-0.1684,-0.1708,-0.176,-0.1774,-0.1788,-0.181,-0.1811,-0.1839,-0.185,-0.1869,-0.1897,-0.1934,-0.1958,-0.1994,-0.2059,-0.2067,-0.2088,-0.2095,-0.2101,-0.2108,-0.2144,-0.2154,-0.2046,-0.2046,-0.2046,0,0,-0.1674,-0.1695,-0.1718,-0.1766,-0.1786,-0.1825,-0.1798,-0.1839,-0.1868,-0.1857,-0.1911,-0.1925,-0.1956,-0.2017,-0.2045,-0.2032,-0.2139,-0.2106,-0.2111,-0.2115,-0.2149,-0.216,-0.2169,-0.2049,-0.2048,-0.2048,0,0,-0.1742,-0.1761,-0.1807,-0.1828,-0.1858,-0.1867,-0.1878,-0.1907,-0.1917,-0.197,-0.1962,-0.1996,-0.206,-0.2083,-0.2103,-0.2178,-0.2171,-0.2189,-0.2226,-0.2261,-0.227,-0.2278,-0.2306,-0.2315,-0.2195,-0.2195,-0.2195,0,-0.1772,-0.1829,-0.1832,-0.1874,-0.1896,-0.1886,-0.1933,-0.1952,-0.1994,-0.2009,-0.1993,-0.2072,-0.2093,-0.2159,-0.2177,-0.2193,-0.2206,-0.2186,-0.2268,-0.2276,-0.2283,-0.231,-0.232,-0.2197,-0.2197,-0.2197,-0.2197,0,-0.1865,-0.1904,-0.1938,-0.1977,-0.2002,-0.2047,-0.2056,-0.2081,-0.208,-0.2091,-0.2146,-0.2169,-0.2209,-0.2224,-0.2224,-0.229,-0.2281,-0.2267,-0.2239,-0.2296,-0.2321,-0.2331,-0.2201,-0.22,-0.2199,-0.2199,0,0,-0.1954,-0.1992,-0.2004,-0.2022,-0.2054,-0.2085,-0.2129,-0.2167,-0.2189,-0.2217,-0.2254,-0.2308,-0.2294,-0.2317,-0.2318,-0.2349,-0.2408,-0.2331,-0.2331,-0.2345,-0.2483,-0.2496,-0.2507,-0.2402,-0.2404,-0.2406,-0.2481,0,-0.2026,-0.2103,-0.2106,-0.2176,-0.2213,-0.2203,-0.2241,-0.2265,-0.2276,-0.2309,-0.232,-0.2359,-0.2337,-0.2351,-0.238,-0.2394,-0.2436,-0.2389,-0.2439,-0.244,-0.2433,-0.252,-0.2534,-0.2604,-0.2491,-0.2493,-0.2494,0,-0.2122,-0.2152,-0.2226,-0.2253,-0.2268,-0.2303,-0.2338,-0.2369,-0.2396,-0.2401,-0.2426,-0.2423,-0.2468,-0.2437,-0.2499,-0.2467,-0.2487,-0.2497,-0.25,-0.2506,-0.2472,-0.2531,-0.2626,-0.2638,-0.2509,-0.2508,-0.2507,0,-0.2181,-0.224,-0.2292,-0.2307,-0.2339,-0.2363,-0.2378,-0.2403,-0.2425,-0.2456,-0.247,-0.2506,-0.2526,-0.2553,-0.256,-0.2536,-0.2623,-0.2592,-0.263,-0.263,-0.265,-0.265,-0.2752,-0.266,-0.266,-0.2659,-0.2659,0,-0.2264,-0.231,-0.2319,-0.2352,-0.2403,-0.2405,-0.2456,-0.2468,-0.249,-0.2525,-0.2517,-0.255,-0.2556,-0.259,-0.2595,-0.2647,-0.2655,-0.2662,-0.2663,-0.2664,-0.2663,-0.2679,-0.2675,-0.2662,-0.2662,-0.2661,-0.2661,0,-0.234,-0.2348,-0.2404,-0.2429,-0.2436,-0.2473,-0.2494,-0.2525,-0.2533,-0.2578,-0.2588,-0.2602,-0.2642,-0.265,-0.2697,-0.2701,-0.2762,-0.2758,-0.2754,-0.2754,-0.2791,-0.2788,-0.2909,-0.2926,-0.2821,-0.2822,-0.2823,0,-0.2393,-0.2428,-0.2456,-0.2479,-0.2494,-0.253,-0.2553,-0.2555,-0.258,-0.2612,-0.2639,-0.2677,-0.2709,-0.2773,-0.2787,-0.2823,-0.2821,-0.286,-0.2826,-0.2826,-0.2823,-0.2822,-0.2826,-0.2868,-0.2869,-0.287,-0.2871,0,-0.2487,-0.2489,-0.2522,-0.2556,-0.2583,-0.261,-0.2635,-0.2654,-0.266,-0.2688,-0.2728,-0.2752,-0.2799,-0.2838,-0.2873,-0.2889,-0.2882,-0.2881,-0.2892,-0.2894,-0.2891,-0.2895,-0.2774,-0.2879,-0.2878,-0.2877,-0.2877,-0.2877,-0.2555,-0.2586,-0.261,-0.2646,-0.2666,-0.2689,-0.272,-0.2731,-0.2765,-0.2803,-0.2803,-0.2847,-0.2872,-0.2919,-0.2936,-0.297,-0.2958,-0.2973,-0.2978,-0.2982,-0.2986,-0.2883,-0.2976,-0.2976,-0.2976,-0.2976,-0.2976,0,-0.265,-0.2664,-0.2698,-0.2734,-0.2762,-0.2751,-0.2778,-0.2803,-0.2842,-0.2865,-0.2896,-0.2942,-0.2979,-0.2995,-0.3032,-0.3056,-0.3054,-0.3066,-0.3066,-0.3069,-0.2994,-0.2982,-0.3068,-0.3068,-0.3068,-0.3068,-0.3067,-0.3067,-0.2703,-0.2755,-0.2759,-0.282,-0.2834,-0.2877,-0.2894,-0.2916,-0.2934,-0.2986,-0.3016,-0.3026,-0.3047,-0.3085,-0.3118,-0.3122,-0.3137,-0.3151,-0.3154,-0.3084,-0.3075,-0.3066,-0.3054,-0.3154,-0.3154,-0.3226,-0.3226,-0.3227]},{"header":{"parameterUnit":"m.s-1","parameterCategory":1,"la1":30.2991,"la2":30.254,"lo1":-89.0895,"lo2":-89.0444,"dx":0.0017,"dy":0.0017,"nx":28,"ny":28,"refTime":"2022-11-16T09:00:00:Z","depth":0,"parameterNumber":3,"parameterNumberName":"V-component_of_WINDS"},"data":[0,0,0,0,0,0,0,0,0,0,0,0,0,0,0,0,0,0,0,0,0,0,0,0,0,0,0,0,0,0,0,0,0,0,0,0,0,0,0,0,0,0,0,0,0,0,0,0,0,0,0,0,0,0,0,0,0,0,-6.1319,-6.132,0,-6.1413,-6.1414,-6.1415,-6.133,-6.1327,-6.1324,-6.132,-6.1412,-6.1417,-6.1423,0,0,0,0,0,0,0,0,0,0,0,0,0,-6.1062,-6.1068,-6.1319,-6.132,-6.1321,-6.1412,-6.1414,-6.1415,-6.1331,-6.1327,-6.1323,-6.1319,-6.141,-6.1417,-6.1423,0,0,0,0,0,0,0,0,0,0,0,0,0,-6.1167,-6.1069,-6.1318,-6.129,-6.1289,-6.1412,-6.1414,-6.1415,-6.1332,-6.1327,-6.1322,-6.1317,-6.1408,-6.1416,-6.1424,-6.1579,0,0,-6.145,-6.1454,0,0,0,0,0,0,0,0,-6.1161,-6.1176,-6.1293,-6.1292,-6.1291,-6.1355,-6.1357,-6.147,-6.1333,-6.1315,-6.132,-6.1314,-6.1397,-6.1406,-6.1434,-6.1583,-6.1587,-6.1451,-6.1456,-6.1459,-6.1462,0,0,0,0,0,0,0,-6.1154,-6.1172,-6.1356,-6.1295,-6.1294,-6.1271,-6.1281,-6.1378,-6.1383,-6.1316,-6.1311,-6.1323,-6.1395,-6.1426,-6.1436,-6.1588,-6.1451,-6.1458,-6.1463,-6.1466,-6.1869,-6.1875,0,0,0,0,0,0,-6.115,-6.1166,-6.1353,-6.1358,-6.1212,-6.128,-6.1291,-6.1339,-6.1382,-6.1384,-6.1327,-6.1319,-6.1415,-6.1426,-6.1439,-6.1623,-6.1459,-6.1467,-6.1472,-6.1864,-6.1871,-6.1877,0,0,0,0,0,0,-6.1145,-6.1168,-6.1349,-6.1261,-6.1282,-6.129,-6.1346,-6.1344,-6.1375,-6.1391,-6.1391,-6.1359,-6.1411,-6.1427,-6.1545,-6.1625,-6.1471,-6.1479,-6.1857,-6.1866,-6.1874,-6.1994,0,0,0,0,0,0,-6.1138,-6.1166,-6.1226,-6.1263,-6.1287,-6.1455,-6.135,-6.1349,-6.1391,-6.138,-6.142,-6.1422,-6.1408,-6.1533,-6.1554,-6.1634,-6.1485,-6.185,-6.1861,-6.1871,-6.1983,-6.2005,-6.2025,0,0,0,0,0,-6.1129,-6.1255,-6.123,-6.1253,-6.1363,-6.146,-6.1474,-6.1457,-6.1397,-6.1457,-6.1467,-6.142,-6.1613,-6.1546,-6.1568,-6.1653,-6.1845,-6.1858,-6.187,-6.1973,-6.2001,-6.2024,0,0,0,0,0,0,-6.1226,-6.1259,-6.1231,-6.1373,-6.1415,-6.1446,-6.1521,-6.1487,-6.1545,-6.1533,-6.1508,-6.1517,-6.1643,-6.1659,-6.1583,-6.1805,-6.1719,-6.1737,-6.179,-6.1816,-6.1837,-6.183,-6.1492,0,0,0,0,0,-6.1264,-6.1342,-6.1366,-6.1489,-6.1511,-6.1513,-6.1554,-6.1538,-6.1579,-6.1596,-6.1614,-6.1655,-6.1725,-6.1771,-6.1836,-6.1984,-6.1992,-6.2053,-6.2074,-6.2091,-6.2107,-6.2187,-6.2215,-6.1918,-6.1918,-6.1918,0,0,-6.1342,-6.1371,-6.1421,-6.1509,-6.1539,-6.162,-6.1528,-6.1616,-6.1675,-6.1609,-6.1723,-6.1738,-6.1781,-6.1916,-6.1975,-6.1933,-6.2191,-6.2108,-6.2121,-6.2128,-6.2203,-6.2232,-6.2257,-6.1927,-6.1925,-6.1924,0,0,-6.1528,-6.1557,-6.1663,-6.1695,-6.1743,-6.1743,-6.1769,-6.1806,-6.1814,-6.1928,-6.188,-6.1948,-6.2069,-6.2102,-6.2135,-6.2334,-6.2293,-6.2355,-6.2465,-6.2544,-6.2567,-6.2588,-6.2659,-6.2685,-6.2371,-6.2371,-6.2371,0,-6.1619,-6.174,-6.1721,-6.1814,-6.1854,-6.1799,-6.1906,-6.1938,-6.2004,-6.2032,-6.1984,-6.2135,-6.216,-6.2302,-6.235,-6.2378,-6.2406,-6.2351,-6.2565,-6.2586,-6.2605,-6.2673,-6.27,-6.2378,-6.2378,-6.2377,-6.2376,0,-6.1851,-6.1935,-6.2015,-6.2082,-6.2131,-6.223,-6.2225,-6.2276,-6.2256,-6.2261,-6.2377,-6.2406,-6.2476,-6.2508,-6.2488,-6.2648,-6.262,-6.2569,-6.2483,-6.2641,-6.2704,-6.273,-6.2389,-6.2386,-6.2384,-6.2382,0,0,-6.2099,-6.2156,-6.2185,-6.2216,-6.2265,-6.2329,-6.2425,-6.2495,-6.254,-6.2587,-6.2667,-6.2771,-6.2725,-6.2762,-6.2745,-6.2814,-6.297,-6.2754,-6.2755,-6.2794,-6.3148,-6.3187,-6.3218,-6.2944,-6.2948,-6.2952,-6.3145,0,-6.2287,-6.2457,-6.2443,-6.2603,-6.2681,-6.263,-6.2714,-6.2752,-6.276,-6.2825,-6.2832,-6.2907,-6.2839,-6.2862,-6.2928,-6.2938,-6.3041,-6.2923,-6.3017,-6.3021,-6.3009,-6.3251,-6.3292,-6.3473,-6.317,-6.3174,-6.3177,0,-6.2529,-6.2587,-6.2756,-6.2794,-6.2826,-6.2902,-6.2966,-6.303,-6.3072,-6.3072,-6.3115,-6.3086,-6.3182,-6.3093,-6.3225,-6.3145,-6.3182,-6.3193,-6.3199,-6.3208,-6.3109,-6.3267,-6.353,-6.3558,-6.3216,-6.3212,-6.321,0,-6.2695,-6.2815,-6.2932,-6.2959,-6.3006,-6.3061,-6.3082,-6.312,-6.3163,-6.3218,-6.3246,-6.3311,-6.3347,-6.3397,-6.3386,-6.3322,-6.3521,-6.3431,-6.3524,-6.3524,-6.3568,-6.3566,-6.3842,-6.3591,-6.3591,-6.359,-6.359,0,-6.2907,-6.3012,-6.3007,-6.3079,-6.3195,-6.3177,-6.3293,-6.3307,-6.3341,-6.3414,-6.3373,-6.3442,-6.3423,-6.3492,-6.3483,-6.3594,-6.361,-6.3613,-6.3609,-6.3617,-6.3617,-6.3642,-6.3629,-6.3597,-6.3596,-6.3594,-6.3593,0,-6.3112,-6.3113,-6.3237,-6.3272,-6.3283,-6.3368,-6.3396,-6.3464,-6.3468,-6.3561,-6.3581,-6.3587,-6.3665,-6.366,-6.3747,-6.3741,-6.3879,-6.386,-6.3865,-6.3862,-6.3955,-6.3947,-6.4258,-6.4298,-6.402,-6.4023,-6.4025,0,-6.3248,-6.3328,-6.3372,-6.3419,-6.3446,-6.3521,-6.3566,-6.3551,-6.3599,-6.3654,-6.3715,-6.3789,-6.3848,-6.3975,-6.3986,-6.4053,-6.4036,-6.414,-6.4045,-6.4051,-6.4038,-6.4034,-6.4042,-6.4159,-6.4162,-6.4165,-6.4167,0,-6.3489,-6.3486,-6.3553,-6.3621,-6.3676,-6.3728,-6.3776,-6.3816,-6.3806,-6.3862,-6.3942,-6.3988,-6.4078,-6.4153,-6.4216,-6.4237,-6.4201,-6.4196,-6.4222,-6.4231,-6.4231,-6.4233,-6.3917,-6.4189,-6.4187,-6.4186,-6.4184,-6.4183,-6.3664,-6.3734,-6.3776,-6.3853,-6.3887,-6.3933,-6.3998,-6.4011,-6.4079,-6.4153,-6.4139,-6.4229,-6.4269,-6.4351,-6.4378,-6.4447,-6.4409,-6.4446,-6.4455,-6.4464,-6.4476,-6.422,-6.4458,-6.4458,-6.4457,-6.4456,-6.4456,0,-6.3904,-6.3929,-6.4,-6.4069,-6.4129,-6.4091,-6.4142,-6.4194,-6.4275,-6.4316,-6.4375,-6.4468,-6.454,-6.4557,-6.4626,-6.4679,-6.4664,-6.4697,-6.4694,-6.4699,-6.4505,-6.4477,-6.4708,-6.4708,-6.4708,-6.4708,-6.4708,-6.4708,-6.4036,-6.4152,-6.4154,-6.4286,-6.431,-6.44,-6.4433,-6.4474,-6.4507,-6.4613,-6.4674,-6.4685,-6.4716,-6.4787,-6.4852,-6.4855,-6.4882,-6.4923,-6.492,-6.4738,-6.4713,-6.4689,-6.4662,-6.4929,-6.4929,-6.5108,-6.511,-6.5111]}]]